Flag for Canada Weather past 2 weeks in Burnaby, British Columbia, Canada

Now
63 °F

Broken clouds.


Feels Like: 63 °F
Forecast: 55 / 68 °F
Wind: 5 mph from South

Location: Vancouver International Air-Port

Current Time: Jul 24, 2014 at 9:29:33 PM

Latest Report: Jul 24, 2014 at 9:00 PM


Visibility: 15 mi

Pressure: 30.15 "Hg

Humidity: 73%

Dew point: 54 °F

Location of BurnabyLocation

Historic Weather in Burnaby — Graph

°F

Burnaby temperature yesterday

Maximum temperature yesterday: 66 °F (at 11:00 AM)
Minimum temperature yesterday: 57 °F (at 8:00 PM)
Average temperature yesterday: 62 °F

Past Weeks' High & Low Weather Summary

 TemperatureHumidityPressure
High81 °F (Jul 14, 7:00 PM)100% (Jul 24, 3:00 AM)30.16 "Hg (Jul 24, 3:00 AM)
Low55 °F (Jul 24, 3:00 AM)45% (Jul 14, 7:00 PM)29.88 "Hg (Jul 10, 8:00 PM)
Average66 °F73%30.00 "Hg
* Reported Jul 9 8:00 PM — Jul 24 8:00 PM, Burnaby, Weather by CustomWeather, © 2014

Note: Actual official high and low records may vary slightly from our data, if they occured in-between our weather recording intervals... More about our weather records

Advertising

Burnaby weather history for previous 24 hours

 ConditionsComfort  
Time TempWeatherWind HumidityBarometerVisibility
8:00 PM
Jul 24
66 °FPartly sunny.6 mph64%30.15 "Hg15 mi
7:00 PM66 °FMore clouds than sun.5 mph64%30.14 "Hg15 mi
6:00 PM68 °FPartly sunny.7 mph60%30.14 "Hg15 mi
5:00 PM68 °FBroken clouds.5 mph60%30.15 "Hg15 mi
4:00 PM64 °FCloudy.8 mph73%30.16 "Hg15 mi
3:00 PM64 °FCloudy.10 mph78%30.15 "Hg15 mi
2:03 PM63 °FLight rain. Cloudy.3 mph68%30.15 "Hg15 mi
1:00 PM64 °FMore clouds than sun.5 mph73%30.14 "Hg15 mi
12:00 PM61 °FMore clouds than sun.3 mph77%30.12 "Hg15 mi
11:00 AM63 °FCloudy.5 mph77%30.10 "Hg15 mi
10:00 AM59 °FMostly cloudy.6 mph88%30.09 "Hg15 mi
9:00 AM57 °FMostly cloudy.9 mph94%30.06 "Hg15 mi
8:00 AM57 °FLight rain. Low clouds.10 mph94%30.05 "Hg12 mi
7:48 AM57 °FLight rain. More clouds than sun.9 mph94%30.05 "Hg8 mi
7:00 AM55 °FLight rain. More clouds than sun.8 mph100%30.04 "Hg10 mi
6:00 AM55 °FLight rain. Overcast.9 mph100%30.03 "Hg8 mi
5:00 AM55 °FLight rain. Low clouds.8 mph100%30.03 "Hg12 mi
4:00 AM55 °FLight rain. Low clouds.8 mph100%30.03 "Hg12 mi
3:00 AM55 °FLight rain. Overcast.8 mph100%30.03 "Hg12 mi
2:00 AM57 °FLight rain. Mostly cloudy.8 mph94%30.02 "Hg12 mi
1:00 AM57 °FLight rain. Overcast.9 mph94%30.02 "Hg12 mi
12:00 AM57 °FOvercast.9 mph94%30.02 "Hg12 mi
11:00 PM
Jul 23
57 °FOvercast.9 mph94%30.02 "Hg12 mi
10:00 PM57 °FLight rain. More clouds than sun.10 mph94%30.02 "Hg10 mi
9:00 PM57 °FLight rain. Mostly cloudy.10 mph94%30.03 "Hg10 mi
Weather by CustomWeather, © 2014

See weather overviewHow to use our weather pages